Location: Newark
(42.9858°N, 0.6717°E)
Time: 18:05:12
(UTC+00:00)

S-56A Canister/Altair - Pass Details

Date: 27 November 2019
Orbit: 633 x 2499 km, 38.9° (Epoch: 07 December)

Event Time Altitude Azimuth Distance (km) Brightness Sun altitude
Rises 19:13:29 0° 280° (W) 5,003 12.8 -30.2°
Reaches altitude 10° 19:17:30 10° 274° (W) 3,691 11.9 -31.0°
Maximum altitude 19:25:29 37° 211° (SSW) 1,671 9.3 -32.4°
Enters shadow 19:26:53 34° 186° (S) 1,673 9.2 -32.7°
Drops below altitude 10° 19:31:03 10° 145° (SE) 2,552 - -33.4°
Sets 19:33:21 0° 136° (SE) 3,317 - -33.9°
